Location: *
(33.8649°S, 62.1526°E)
Time: 13:08:10
(UTC+00:00)

IRS-1C - Pass Details

Date: 17 January 2021
Orbit: 815 x 817 km, 98.9° (Epoch: 02 March)

Event Time Altitude Azimuth Distance (km) Brightness Sun altitude
Exits shadow 22:13:59 53° 241° (WSW) 1,005 4.4 -27.1°
Drops below altitude 10° 22:18:27 10° 201° (SSW) 2,434 7.0 -26.6°
Sets 22:20:51 0° 197° (SSW) 3,374 7.8 -26.3°
